Regional Weather Roundup
Issued by NWS

Home | Current Version | Previous Version | Text Only | Print | Product List | Glossary On
Versions: 1 2 3 4 5 6 7 8 9 10 11 12 13 14 15 16 17 18 19 20 21 22 23 24 25 26 27 28 29 30 31 32 33 34 35 36 37 38 39 40 41 42 43 44 45 46 47 48 49 50
862
ASUS43 KMKX 181220
RWRWI

WISCONSIN REGIONAL WEATHER ROUNDUP
NATIONAL WEATHER SERVICE MILWAUKEE/SULLIVAN WI
600 AM CST THU JAN 18 2018

NOTE: "FAIR" INDICATES FEW OR NO CLOUDS BELOW 12,000 FEET WITH NO
SIGNIFICANT WEATHER AND/OR OBSTRUCTIONS TO VISIBILITY.

WIZ001-002-006>008-014>016-023>028-181300-
NORTHWEST WISCONSIN

CITY           SKY/WX    TMP DP  RH WIND       PRES   REMARKS
SUPERIOR ARPT  FAIR      27  20  76 SW9       29.74F WCI  17
6HR MIN TEMP:  23; 6HR MAX TEMP:  27;

ASHLAND        NOT AVBL
HAYWARD        FAIR      18  13  80 S6        29.81F WCI  10
6HR MIN TEMP:  12; 6HR MAX TEMP:  23;

SIREN          FAIR      25  18  75 SW6       29.83F WCI  18
6HR MIN TEMP:  24; 6HR MAX TEMP:  27;

CUMBERLAND     FAIR      23  18  80 SW8       29.85R WCI  14
RICE LAKE      FAIR      23  18  82 CALM      29.88R
6HR MIN TEMP:  20; 6HR MAX TEMP:  24;

CHETEK         FAIR      22  17  81 CALM      29.88R
6HR MIN TEMP:  18; 6HR MAX TEMP:  23;

LADYSMITH      FAIR      17  14  87 CALM      29.88R
6HR MIN TEMP:  13; 6HR MAX TEMP:  19;

EAU CLAIRE     FAIR      22  16  78 S14       29.86F WCI   9
6HR MIN TEMP:  20; 6HR MAX TEMP:  23; 6HR PCP: TRACE;

MENOMONIE      FAIR      24  17  75 S6        29.88F WCI  17
6HR MIN TEMP:  21; 6HR MAX TEMP:  25;

NEW RICHMOND   FAIR      23  17  77 SW8       29.88R WCI  14
6HR MIN TEMP:  15; 6HR MAX TEMP:  23;

OSCEOLA        FAIR      23  18  80 CALM      29.91R
6HR MIN TEMP:  19; 6HR MAX TEMP:  25;

$$

WIZ003>005-009-010-017-018-181300-
NORTH CENTRAL WISCONSIN

CITY           SKY/WX    TMP DP  RH WIND       PRES   REMARKS
MANITOWISH WTR FAIR      18  16  92 SW8       29.79S WCI   8
6HR MIN TEMP:  16; 6HR MAX TEMP:  19;

ARBOR VITAE    FAIR      22  18  87 CALM      29.80R
6HR MIN TEMP:  19; 6HR MAX TEMP:  22;

WOODRUFF       FAIR      22  18  87 CALM      29.80R
6HR MIN TEMP:  19; 6HR MAX TEMP:  22;

RHINELANDER    FAIR      18  15  88 SW8       29.81S WCI   8
6HR MIN TEMP:  17; 6HR MAX TEMP:  19;

EAGLE RIVER    FAIR      17  14  86 SW7       29.78F WCI   8
6HR MIN TEMP:  12; 6HR MAX TEMP:  18;

LAND O LAKES   FAIR      20  17  87 SW5       29.78F WCI  13
6HR MIN TEMP:  19; 6HR MAX TEMP:  20;

PHILLIPS       FAIR      21  17  83 SW6       29.82R WCI  13
6HR MIN TEMP:  17; 6HR MAX TEMP:  21;

TOMAHAWK       FAIR      20  16  83 SW3       29.82F
6HR MIN TEMP:  19; 6HR MAX TEMP:  20;

MEDFORD        FAIR      19  15  82 SW12      29.82F WCI   7
6HR MIN TEMP:  17; 6HR MAX TEMP:  19;

MERRILL        FAIR      20  15  82 SW8       29.84F WCI  10
6HR MIN TEMP:  16; 6HR MAX TEMP:  20;

$$

WIZ029-030-035-036-043>047-181300-
CENTRAL WISCONSIN

CITY           SKY/WX    TMP DP  RH WIND       PRES   REMARKS
WAUSAU         FAIR      20  14  77 SW10      29.85F WCI   9
6HR MIN TEMP:  17; 6HR MAX TEMP:  20;

MOSINEE        CLEAR     18  16  93 SW10      29.89F WCI   6
MARSHFIELD     FAIR      17  13  84 SW12      29.88F WCI   4
6HR MIN TEMP:  16; 6HR MAX TEMP:  19;

STEVENS POINT  FAIR      17  13  84 SW7       29.92F WCI   8
6HR MIN TEMP:  17; 6HR MAX TEMP:  19;

WAUPACA        FAIR      22  14  71 SW5       29.95F WCI  16
6HR MIN TEMP:  22; 6HR MAX TEMP:  24;

WAUTOMA        FAIR      18  12  77 SW8       29.97F WCI   8
6HR MIN TEMP:  16; 6HR MAX TEMP:  19;

WISC RAPIDS    FAIR      17  10  74 SW10      29.94F WCI   5
6HR MIN TEMP:  16; 6HR MAX TEMP:  20;

CAMP DOUGLAS   CLEAR     19  12  73 SW7       29.96F WCI  10
$$

WIZ011>013-019>022-031-037>040-048>050-181300-
NORTHEAST WISCONSIN

CITY           SKY/WX    TMP DP  RH WIND       PRES   REMARKS
ANTIGO         FAIR      18  14  86 W9        29.83F WCI   7
6HR MIN TEMP:  17; 6HR MAX TEMP:  19;

SHAWANO        FAIR      21  15  76 CALM      29.89F
6HR MIN TEMP:  22; 6HR MAX TEMP:  24;

OCONTO         FAIR      19  13  76 SW5       29.90F WCI  13
6HR MIN TEMP:  18; 6HR MAX TEMP:  22;

STURGEON BAY   FAIR      19  13  77 SW13      29.91F WCI   6
6HR MIN TEMP:  19; 6HR MAX TEMP:  21;

GREEN BAY      FAIR      18  11  74 SW9       29.93F WCI   7
6HR MIN TEMP:  17; 6HR MAX TEMP:  19;

MANITOWOC      FAIR      21  13  71 W13G22    29.95F WCI   9
6HR MIN TEMP:  19; 6HR MAX TEMP:  21;

APPLETON       PTCLDY    18  10  73 SW12      29.93S WCI   5
CLINTONVILLE   FAIR      19  14  79 SW10      29.91F WCI   8
OSHKOSH        FAIR      20  12  71 SW8       29.97F WCI  10
6HR MIN TEMP:  19; 6HR MAX TEMP:  20;

$$

WIZ032>034-041-042-053>061-181300-
SOUTHWEST WISCONSIN

CITY           SKY/WX    TMP DP  RH WIND       PRES   REMARKS
LA CROSSE      FAIR      19  12  74 S8        30.01F WCI   9
6HR MIN TEMP:  17; 6HR MAX TEMP:  22;

SPARTA         FAIR      19  14  80 SW3       29.99F
6HR MIN TEMP:  18; 6HR MAX TEMP:  23;

VIROQUA        FAIR      17  13  86 SW13      29.98F WCI   3
6HR MIN TEMP:  16; 6HR MAX TEMP:  20;

BOSCOBEL       FAIR      16   9  74 SW5       30.08F WCI   9
6HR MIN TEMP:  15; 6HR MAX TEMP:  21;

PRAIRIE DU CHI FAIR      18  10  69 SW3       30.08F
6HR MIN TEMP:  17; 6HR MAX TEMP:  21;

PLATTEVILLE    FAIR      16  11  80 SW10      30.08F WCI   4
6HR MIN TEMP:  16; 6HR MAX TEMP:  20;

$$

WIZ056-057-062-063-064-067-068-181300-
SOUTH CENTRAL WISCONSIN

CITY           SKY/WX    TMP DP  RH WIND       PRES   REMARKS
REEDSBURG      FAIR      18  11  73 SW9       30.01F WCI   7
6HR MIN TEMP:  18; 6HR MAX TEMP:  21;

BARABOO/DELLS  FAIR      18  11  74 SW9       30.00F WCI   6
6HR MIN TEMP:  17; 6HR MAX TEMP:  20;

LONE ROCK      FAIR      15   9  76 SW3       30.07F
6HR MIN TEMP:  15; 6HR MAX TEMP:  20;

MINERAL POINT  FAIR      19  14  79 SW12      30.05F WCI   7
MADISON        FAIR      18  10  71 VRB6      30.04F WCI  10
6HR MIN TEMP:  18; 6HR MAX TEMP:  20;

MIDDLETON      FAIR      19  12  73 W10       30.05S WCI   8
6HR MIN TEMP:  19; 6HR MAX TEMP:  22;

WATERTOWN      FAIR      17  11  77 SW8       30.05R WCI   7
6HR MIN TEMP:  17; 6HR MAX TEMP:  18;

MONROE         FAIR      18  10  73 SW14      30.07S WCI   4
JANESVILLE     FAIR      18  10  73 SW12      30.10S WCI   5
$$

WIZ051-052-058>065-066-070>072-181300-
SOUTHEAST WISCONSIN

CITY           SKY/WX    TMP DP  RH WIND       PRES   REMARKS
MILWAUKEE      FAIR      20  11  68 SW13      30.05S WCI   7
6HR MIN TEMP:  20; 6HR MAX TEMP:  22;

WAUKESHA       CLEAR     16   9  73 SW12G18   30.05F WCI   3
MILWAUKEE/TIMM FAIR      19  10  68 W13       30.05S WCI   7
RACINE         FAIR      19  10  68 W15G28    30.07F WCI   5
6HR MIN TEMP:  19; 6HR MAX TEMP:  20;

BURLINGTON     FAIR      17   9  71 SW10      30.08S WCI   4
6HR MIN TEMP:  17; 6HR MAX TEMP:  18;

KENOSHA        FAIR      18   9  68 W16       30.08S WCI   3
6HR MIN TEMP:  18; 6HR MAX TEMP:  19; 6HR PCP: TRACE;

FOND DU LAC    FAIR      19   9  65 SW12      29.99F WCI   7
6HR MIN TEMP:  18; 6HR MAX TEMP:  20;

SHEBOYGAN      FAIR      20  13  74 W14       29.98F WCI   7
6HR MIN TEMP:  19; 6HR MAX TEMP:  21;

WEST BEND      FAIR      19  12  73 W9        30.00F WCI   9
JUNEAU         FAIR      15  10  77 SW10      30.02F WCI   3
6HR MIN TEMP:  15; 6HR MAX TEMP:  18;

$$

LSZ147-162-181300-
LAKE SUPERIOR

STATION/POSITION TIME  TEMP    WIND        PRES    WAVE
                       AIR SEA DIR/SP/G            HT/PER
                 (UTC) (F)     (DEG/KT/KT) (MB)    (FT/S)
DEVILS ISLAND    1200   31     260/ 16/ 18 1007.7F
SAXON HARBOR     1130   29     200/ 15/ 19 1007.1F
$$

LMZ867-665-643>646-181300-
LAKE MICHIGAN

STATION/POSITION TIME  TEMP    WIND        PRES    WAVE
                       AIR SEA DIR/SP/G            HT/PER
                 (UTC) (F)     (DEG/KT/KT) (MB)    (FT/S)
NORTHPORT PIER   1206   21     240/ 11/ 26 1011.9
KEWAUNEE LAKESHO 1154   20     250/  5/  9



USA.gov is the U.S. government's official web portal to all federal, state and local government web resources and services.